Date,TemperatureHighF,TemperatureAvgF,TemperatureLowF,DewpointHighF,DewpointAvgF,DewpointLowF,HumidityHigh,HumidityAvg,HumidityLow,PressureMaxIn,PressureMinIn,WindSpeedMaxMPH,WindSpeedAvgMPH,GustSpeedMaxMPH,PrecipitationSumIn
2013-3-1,58,50,47,51,47,46,97,90,74,29.88,29.80,11,3,11,0.04
2013-3-2,57,48,39,49,45,37,94,87,67,29.83,29.59,9,1,9,0.47
2013-3-3,52,41,34,42,35,30,97,81,53,29.83,29.71,6,1,6,0.00
2013-3-4,54,39,32,38,29,24,89,71,41,29.83,29.44,6,1,8,0.00
2013-3-5,54,47,42,37,28,24,80,48,42,29.44,29.26,9,2,9,0.00
2013-3-6,45,41,38,42,38,34,95,89,80,29.41,29.12,6,0,6,0.51
2013-3-7,51,42,36,47,40,34,96,92,82,29.62,29.41,4,0,5,0.35
2013-3-8,56,41,32,46,36,31,95,84,61,29.77,29.59,6,0,6,0.00
2013-3-9,59,42,31,44,34,28,93,75,49,30.03,29.77,7,1,7,0.00
2013-3-10,48,42,35,42,38,30,94,86,78,30.03,29.94,5,0,5,0.04
2013-3-11,53,46,40,46,43,39,96,89,70,29.97,29.68,4,0,5,0.04
2013-3-12,54,52,46,50,48,45,96,86,70,29.68,29.59,13,4,15,0.00
2013-3-13,53,52,50,52,50,47,98,92,84,29.74,29.62,10,2,11,0.24
2013-3-14,54,50,48,53,49,45,98,94,83,29.71,29.56,8,1,8,0.00
2013-3-15,60,53,49,51,48,46,95,85,65,29.74,29.68,10,3,10,0.00
2013-3-16,50,47,41,46,41,34,88,81,66,29.68,29.41,12,4,14,0.08
2013-3-17,52,43,38,36,34,31,86,73,51,29.71,29.47,10,3,231,0.00
2013-3-18,50,43,36,41,35,31,87,75,58,29.80,29.62,10,3,10,0.00
2013-3-19,56,43,34,40,33,29,91,72,38,29.80,29.15,10,2,10,0.16
2013-3-20,51,46,40,49,40,31,97,82,65,29.53,28.94,27,5,27,0.59
2013-3-21,49,40,36,36,33,30,92,76,54,29.71,29.53,9,3,10,0.08
2013-3-22,49,38,33,40,33,28,93,81,57,29.88,29.71,6,1,6,0.16
2013-3-23,56,41,32,36,29,26,83,65,42,29.88,29.80,8,1,8,0.00
2013-3-24,57,43,32,33,28,26,81,59,36,29.83,29.65,8,1,8,0.00
2013-3-25,66,49,34,38,30,24,70,50,34,29.65,29.47,8,1,8,0.00
2013-3-26,67,52,44,43,37,33,72,57,40,29.53,29.47,10,1,10,0.00
2013-3-27,60,50,44,49,42,37,88,74,53,29.53,29.47,6,0,6,0.00
2013-3-28,65,51,42,51,44,39,94,77,51,29.68,29.53,8,1,8,0.00
2013-3-29,69,54,43,48,43,39,90,70,45,29.80,29.68,10,1,10,0.00
2013-3-30,64,54,38,49,43,35,89,69,55,29.80,29.62,6,1,6,0.00
2013-3-31,77,57,40,51,43,36,87,63,39,29.62,29.44,6,1,9,0.00